DW5868 Weather Reports


Display with metric or nautical units.
time (UTC)temp
F
wind
direction
speed
MPH
gust
MPH
rain 1hr
in
rain 24hr
in
rain mn
in
humidity
%
barometer
mb
20260902123006 0 0.0 0.0 0.00 0.00 0.00 1008.9
20260902121657 0 0.0 0.0 0.00 0.00 0.00 1009.0
20260902120055 0 0.0 0.0 0.00 0.00 0.00 1009.3
20260902114552 41 272 3.0 22.0 0.00 0.00 0.00 60 1009.2
20260902113049 42 214 5.0 25.0 0.00 0.00 0.00 59 1008.7
20260902111646 43 261 6.0 22.0 0.00 0.00 0.00 54 1008.5
20260902110055 43 269 8.0 26.0 0.00 0.00 0.00 51 1008.2
20260902104542 43 211 7.0 27.0 0.00 0.00 0.00 47 1008.1
20260902103040 43 303 6.0 16.0 0.00 0.00 0.00 47 1007.9
20260902101639 43 256 4.0 18.0 0.00 0.00 0.00 49 1008.2
20260902100047 44 269 7.0 27.0 0.00 0.00 0.00 48 1008.3
20260902094548 44 272 4.0 16.0 0.00 0.00 0.00 46 1008.2
20260902093043 45 267 7.0 30.0 0.00 0.00 0.00 43 1008.0
20260902090039 46 272 6.0 21.0 0.00 0.00 0.00 40 1008.1
20260902084530 46 226 8.0 30.0 0.00 0.00 0.00 38 1008.3
20260902083029 45 281 8.0 33.0 0.00 0.00 0.00 41 1008.6
20260902081629 45 257 5.0 16.0 0.00 0.00 0.00 43 1008.3
20260902080029 45 254 7.0 25.0 0.00 0.00 0.00 40 1008.3
20260902074525 44 286 4.0 20.0 0.00 0.00 0.00 42 1008.0
20260902073022 44 202 7.0 30.0 0.00 0.00 0.00 48 1008.3
20260902071621 45 292 10.0 25.0 0.00 0.00 0.00 40 1007.7
20260902070023 45 246 10.0 24.0 0.00 0.00 0.00 44 1007.8
20260902064533 45 261 4.0 22.0 0.00 0.00 0.00 46 1007.9
20260902063017 45 284 6.0 24.0 0.00 0.00 0.00 48 1008.0
20260902061631 45 173 8.0 27.0 0.00 0.00 0.00 47 1007.7
20260902060014 45 280 9.0 26.0 0.00 0.00 0.00 48 1007.8
20260902054511 45 292 9.0 39.0 0.00 0.00 0.00 48 1007.5
20260902053008 47 23 9.0 25.0 0.00 0.00 0.00 40 1007.2
20260902051615 46 279 9.0 26.0 0.00 0.00 0.00 49 1007.7
20260902050008 46 194 9.0 22.0 0.00 0.00 0.00 50 1007.5
20260902044509 48 277 5.0 23.0 0.00 0.00 0.00 43 1007.0
20260902043008 48 269 6.0 21.0 0.00 0.00 0.00 41 1007.1
20260902041605 46 284 5.0 21.0 0.00 0.00 0.00 52 1007.1
20260902040001 47 289 9.0 30.0 0.00 0.00 0.00 48 1007.1
20260902034606 46 19 7.0 22.0 0.00 0.00 0.00 56 1006.8
20260902033100 47 277 14.0 34.0 0.00 0.00 0.00 55 1006.9
20260902031558 47 282 6.0 30.0 0.00 0.00 0.00 54 1006.3
20260902030058 47 198 6.0 20.0 0.00 0.00 0.00 54 1006.4
20260902024559 47 246 8.0 23.0 0.00 0.00 0.00 53 1006.3
20260902023058 48 227 6.0 18.0 0.00 0.00 0.00 51 1006.2
20260902021619 49 237 5.0 16.0 0.00 0.00 0.00 49 1006.3
20260902014610 51 286 5.0 17.0 0.00 0.00 0.00 45 1006.1
20260902013100 52 150 5.0 13.0 0.00 0.00 0.00 43 1006.0
20260902011603 54 270 6.0 16.0 0.00 0.00 0.00 41 1005.9
20260902010058 55 259 3.0 17.0 0.00 0.00 0.00 40 1006.3
20260902004557 56 240 7.0 18.0 0.00 0.00 0.00 38 1006.3
20260902003057 56 268 6.0 17.0 0.00 0.00 0.00 37 1006.3
20260902001556 56 295 10.0 20.0 0.00 0.00 0.00 37 1006.5
20260901234557 57 229 4.0 28.0 0.00 0.00 0.00 37 1006.5
20260901233107 57 246 8.0 20.0 0.00 0.00 0.00 37 1006.4
20260901231556 58 279 12.0 27.0 0.00 0.00 0.00 35 1006.5
20260901230058 58 281 10.0 22.0 0.00 0.00 0.00 35 1006.4
20260901224555 59 267 6.0 21.0 0.00 0.00 0.00 34 1006.4
20260901223108 59 279 9.0 20.0 0.00 0.00 0.00 33 1006.5
20260901221553 60 267 4.0 19.0 0.00 0.00 0.00 33 1006.5
20260901220042 59 52 6.0 19.0 0.00 0.00 0.00 33 1006.6
20260901220005 59 227 6.0 19.0 0.00 0.00 0.00 32 1006.5
20260901213003 59 214 8.0 23.0 0.00 0.00 0.00 32 1006.3
20260901211504 58 290 10.0 23.0 0.00 0.00 0.00 32 1006.5
20260901210003 59 301 11.0 22.0 0.00 0.00 0.00 32 1006.6
20260901204503 59 260 7.0 20.0 0.00 0.00 0.00 31 1006.7
20260901203015 59 273 6.0 16.0 0.00 0.00 0.00 30 1006.9
20260901201505 60 273 5.0 22.0 0.00 0.00 0.00 31 1006.7
20260901200005 60 277 3.0 20.0 0.00 0.00 0.00 31 1006.6
20260901194505 61 232 7.0 18.0 0.00 0.00 0.00 30 1006.6
20260901193059 60 30 5.0 17.0 0.00 0.00 0.00 31 1006.7
20260901191606 60 241 7.0 15.0 0.00 0.00 0.00 31 1006.6
20260901190112 60 248 6.0 16.0 0.00 0.00 0.00 31 1006.9
20260901184559 59 259 3.0 14.0 0.00 0.00 0.00 32 1006.7
20260901183053 58 269 6.0 18.0 0.00 0.00 0.00 32 1006.5
20260901181554 57 269 12.0 27.0 0.00 0.00 0.00 33 1006.8
20260901180050 57 241 7.0 18.0 0.00 0.00 0.00 35 1006.8
20260901174601 56 46 3.0 20.0 0.00 0.00 0.00 38 1006.6
20260901173049 55 275 10.0 19.0 0.00 0.00 0.00 37 1006.5
20260901171548 56 280 7.0 19.0 0.00 0.00 0.00 37 1006.3
20260901170044 55 304 7.0 18.0 0.00 0.00 0.00 39 1005.8
20260901164546 54 226 7.0 19.0 0.00 0.00 0.00 41 1005.8
20260901163042 53 269 4.0 18.0 0.00 0.00 0.00 42 1005.7
20260901161542 53 296 7.0 16.0 0.00 0.00 0.00 42 1005.7
20260901160040 55 232 1.0 7.0 0.00 0.00 0.00 41 1005.7
20260901154536 52 260 5.0 14.0 0.00 0.00 0.00 46 1005.4
20260901153038 51 268 5.0 14.0 0.00 0.00 0.00 48 1005.1
20260901151534 50 286 5.0 16.0 0.00 0.00 0.00 54 1005.0
20260901150034 49 261 5.0 25.0 0.00 0.00 0.00 59 1004.8
20260901144531 48 275 5.0 21.0 0.00 0.00 0.00 62 1004.6
20260901143037 48 305 3.0 16.0 0.00 0.00 0.00 63 1004.5
20260901141530 47 283 6.0 21.0 0.00 0.00 0.00 64 1004.3
20260901140030 47 288 3.0 16.0 0.00 0.00 0.00 63 1003.9
20260901134524 0 0.0 0.0 0.00 0.00 0.00 1003.7
20260901133031 0 0.0 0.0 0.00 0.00 0.00 1003.6
20260901131517 0 0.0 0.0 0.00 0.00 0.00 1003.9
20260901130013 0 0.0 0.0 0.00 0.00 0.00 1004.0
20260901124509 0 0.0 0.0 0.00 0.00 0.00 1004.3